DW7779 Weather Reports


Display with metric or nautical units.
time (UTC)temp
F
wind
direction
speed
MPH
gust
MPH
rain 1hr
in
rain 24hr
in
rain mn
in
humidity
%
barometer
mb
20260903181517 42 0.0 1.0 0.00 0.04 0.00 87 1016.9
20260903180022 42 0.0 2.0 0.00 0.04 0.00 88 1017.1
20260903174518 42 0.0 2.0 0.00 0.04 0.00 88 1017.1
20260903173011 42 0.0 2.0 0.00 0.04 0.00 88 1017.2
20260903171614 42 0.0 2.0 0.00 0.04 0.00 87 1017.4
20260903170008 43 1.0 3.0 0.00 0.04 0.00 86 1017.6
20260903164507 43 1.0 5.0 0.00 0.04 0.00 87 1017.6
20260903163005 43 1.0 3.0 0.00 0.04 0.00 88 1017.8
20260903161503 43 2.0 4.0 0.00 0.04 0.00 88 1017.9
20260903160100 43 1.0 5.0 0.00 0.04 0.00 89 1018.0
20260903154559 42 0.0 2.0 0.00 0.04 0.00 90 1018.2
20260903153107 42 0.0 2.0 0.00 0.04 0.00 89 1018.2
20260903151658 42 0.0 2.0 0.00 0.04 0.00 91 1018.4
20260903150101 42 0.0 2.0 0.00 0.04 0.00 91 1018.5
20260903144555 42 0.0 0.0 0.00 0.04 0.00 91 1018.5
20260903143053 42 0.0 0.0 0.00 0.04 0.00 92 1018.5
20260903141550 42 0.0 0.0 0.00 0.04 0.00 91 1018.5
20260903140050 43 0.0 0.0 0.00 0.04 0.00 90 1018.5
20260903134547 44 0.0 0.0 0.00 0.04 0.04 89 1018.5
20260903133046 44 0.0 0.0 0.00 0.04 0.04 89 1018.4
20260903131540 45 0.0 3.0 0.00 0.04 0.04 88 1018.4
20260903130042 45 1.0 2.0 0.00 0.04 0.04 88 1018.4
20260903124535 46 1.0 3.0 0.00 0.04 0.04 86 1018.4
20260903123033 47 1.0 2.0 0.00 0.04 0.04 87 1018.4
20260903121532 46 0.0 0.0 0.00 0.04 0.04 87 1018.3
20260903120034 47 0.0 1.0 0.00 0.04 0.04 87 1018.4
20260903114530 47 0.0 0.0 0.00 0.04 0.04 87 1018.4
20260903113028 47 1.0 2.0 0.00 0.04 0.04 88 1018.3
20260903111527 48 0.0 1.0 0.00 0.04 0.04 87 1018.2
20260903110127 48 0.0 2.0 0.00 0.04 0.04 86 1017.9
20260903104523 49 0.0 2.0 0.00 0.04 0.04 85 1017.8
20260903103021 49 0.0 1.0 0.00 0.04 0.04 84 1017.5
20260903101538 49 0.0 1.0 0.00 0.04 0.04 85 1017.3
20260903100024 49 0.0 1.0 0.00 0.04 0.04 84 1017.2
20260903094516 49 0.0 1.0 0.00 0.04 0.04 84 1016.9
20260903093015 50 0.0 1.0 0.00 0.04 0.04 83 1016.9
20260903091514 50 0.0 1.0 0.00 0.04 0.04 82 1016.7
20260903090011 51 0.0 1.0 0.00 0.04 0.04 80 1016.5
20260903084525 52 0.0 2.0 0.00 0.04 0.04 78 1016.4
20260903083017 52 0.0 2.0 0.00 0.04 0.04 77 1016.1
20260903081506 53 0.0 2.0 0.00 0.04 0.04 75 1015.6
20260903080010 54 0.0 1.0 0.00 0.04 0.04 73 1015.3
20260903074504 55 0.0 2.0 0.00 0.04 0.04 71 1015.2
20260903073101 56 0.0 1.0 0.00 0.04 0.04 70 1015.0
20260903071558 57 0.0 4.0 0.00 0.04 0.04 69 1014.8
20260903070057 57 0.0 3.0 0.00 0.04 0.04 68 1014.5
20260903064603 58 1.0 4.0 0.00 0.04 0.04 67 1014.3
20260903063051 59 1.0 5.0 0.00 0.04 0.04 66 1014.0
20260903061551 60 2.0 6.0 0.00 0.04 0.04 64 1013.7
20260903060053 60 3.0 9.0 0.00 0.04 0.04 64 1013.6
20260903054547 60 2.0 7.0 0.00 0.04 0.04 64 1013.5
20260903053148 59 3.0 5.0 0.00 0.04 0.04 63 1013.2
20260903051548 60 3.0 7.0 0.00 0.04 0.04 60 1013.0
20260903050040 61 3.0 13.0 0.00 0.04 0.04 60 1012.6
20260903044641 60 3.0 10.0 0.00 0.04 0.04 62 1012.4
20260903043038 60 3.0 7.0 0.00 0.04 0.04 61 1012.4
20260903041535 61 3.0 9.0 0.00 0.04 0.04 63 1012.1
20260903040040 62 2.0 8.0 0.00 0.04 0.04 62 1012.0
20260903034533 61 3.0 9.0 0.00 0.04 0.04 61 1012.0
20260903033029 61 4.0 9.0 0.00 0.04 0.04 64 1012.0
20260903031526 61 2.0 7.0 0.00 0.04 0.04 70 1012.0
20260903030021 59 1.0 7.0 0.00 0.04 0.04 79 1012.1
20260903024520 58 4.0 13.0 0.00 0.04 0.04 83 1012.0
20260903023024 57 3.0 7.0 0.00 0.04 0.04 87 1011.7
20260903021520 57 3.0 10.0 0.00 0.04 0.04 88 1011.7
20260903020015 56 3.0 8.0 0.00 0.04 0.04 92 1011.5
20260903014512 55 2.0 9.0 0.00 0.04 0.04 91 1011.3
20260903013012 56 3.0 7.0 0.01 0.04 0.04 95 1010.9
20260903011509 55 3.0 9.0 0.02 0.04 0.04 95 1011.0
20260903010008 52 2.0 7.0 0.02 0.04 0.04 95 1011.0
20260903004505 52 2.0 9.0 0.02 0.04 0.04 93 1010.9
20260903003003 54 5.0 13.0 0.02 0.03 0.03 85 1010.8
20260903001504 58 4.0 11.0 0.00 0.02 0.02 80 1010.3
20260902234557 56 1.0 3.0 0.02 0.02 0.02 89 1010.2
20260902233057 55 0.0 4.0 0.02 0.02 0.02 90 1010.3
20260902231556 54 2.0 6.0 0.02 0.02 0.02 91 1010.2
20260902230056 55 2.0 6.0 0.01 0.01 0.01 87 1010.2
20260902224556 56 4.0 14.0 0.00 0.00 0.00 83 1009.7
20260902223053 57 5.0 15.0 0.00 0.00 0.00 80 1009.0
20260902221551 56 6.0 15.0 0.00 0.00 0.00 80 1008.5
20260902220054 55 8.0 14.0 0.00 0.00 0.00 80 1008.1
20260902214542 54 6.0 13.0 0.00 0.00 0.00 81 1007.9
20260902213046 54 4.0 11.0 0.00 0.00 0.00 82 1007.9
20260902211540 53 6.0 9.0 0.00 0.00 0.00 82 1007.7
20260902210037 53 4.0 10.0 0.00 0.00 0.00 82 1007.6
20260902204536 53 5.0 11.0 0.00 0.00 0.00 81 1007.8
20260902203035 53 5.0 10.0 0.00 0.00 0.00 81 1007.8
20260902201535 52 4.0 8.0 0.00 0.00 0.00 82 1007.8
20260902200032 52 2.0 8.0 0.00 0.00 0.00 81 1007.7
20260902194538 52 2.0 8.0 0.00 0.00 0.00 81 1007.5
20260902193030 52 5.0 11.0 0.00 0.00 0.00 80 1007.3
20260902191529 51 3.0 7.0 0.00 0.00 0.00 81 1007.6
20260902190033 50 3.0 6.0 0.00 0.00 0.00 81 1007.6
20260902184522 49 2.0 5.0 0.00 0.00 0.00 81 1007.6
20260902183022 49 1.0 3.0 0.00 0.00 0.00 81 1007.5